Time,TemperatureF,DewpointF,PressureIn,WindDirection,WindDirectionDegrees,WindSpeedMPH,WindSpeedGustMPH,Humidity,HourlyPrecipIn,Conditions,Clouds,dailyrainin,SoftwareType,DateUTC
2013-06-26 00:01:00,82.0,69.0,29.80,WNW,302,1.0,10.0,65,0.00,,,0.00,,2013-06-26 04:01:00,
2013-06-26 00:22:00,82.0,69.0,29.79,West,265,1.0,10.0,65,0.00,,,0.00,,2013-06-26 04:22:00,
2013-06-26 00:33:00,82.0,69.0,29.79,West,265,1.0,10.0,65,0.00,,,0.00,,2013-06-26 04:33:00,
2013-06-26 00:43:00,82.0,69.0,29.78,West,278,1.0,5.0,65,0.00,,,0.00,,2013-06-26 04:43:00,
2013-06-26 00:53:00,81.0,68.0,29.77,WNW,287,1.0,5.0,64,0.00,,,0.00,,2013-06-26 04:53:00,
2013-06-26 01:02:00,81.0,68.0,29.77,WNW,287,1.0,5.0,65,0.00,,,0.00,,2013-06-26 05:02:00,
2013-06-26 01:11:00,81.0,69.0,29.76,WNW,282,0.0,5.0,66,0.00,,,0.00,,2013-06-26 05:11:00,
2013-06-26 01:22:00,81.0,69.0,29.76,West,281,0.0,5.0,66,0.00,,,0.00,,2013-06-26 05:22:00,
2013-06-26 01:34:00,81.0,69.0,29.76,WNW,282,0.0,5.0,66,0.00,,,0.00,,2013-06-26 05:34:00,
2013-06-26 01:43:00,80.0,68.0,29.76,WNW,282,0.0,5.0,67,0.00,,,0.00,,2013-06-26 05:43:00,
2013-06-26 01:52:00,80.0,68.0,29.75,WNW,282,0.0,5.0,67,0.00,,,0.00,,2013-06-26 05:52:00,
2013-06-26 02:02:00,80.0,68.0,29.75,WNW,282,0.0,5.0,68,0.00,,,0.00,,2013-06-26 06:02:00,
2013-06-26 02:22:00,79.0,68.0,29.75,WNW,282,1.0,5.0,70,0.00,,,0.00,,2013-06-26 06:22:00,
2013-06-26 02:34:00,79.0,68.0,29.75,WNW,282,1.0,5.0,70,0.00,,,0.00,,2013-06-26 06:34:00,
2013-06-26 02:43:00,79.0,69.0,29.75,West,261,0.0,5.0,72,0.00,,,0.00,,2013-06-26 06:43:00,
2013-06-26 03:11:00,79.0,71.0,29.74,West,261,0.0,5.0,76,0.00,,,0.00,,2013-06-26 07:11:00,
2013-06-26 03:22:00,79.0,71.0,29.74,West,261,0.0,5.0,76,0.00,,,0.00,,2013-06-26 07:22:00,
2013-06-26 03:33:00,78.0,71.0,29.75,WNW,302,1.0,5.0,80,0.00,,,0.00,,2013-06-26 07:33:00,
2013-06-26 03:43:00,78.0,71.0,29.74,WNW,298,1.0,5.0,80,0.00,,,0.00,,2013-06-26 07:43:00,
2013-06-26 03:53:00,78.0,71.0,29.74,WNW,298,1.0,5.0,80,0.00,,,0.00,,2013-06-26 07:53:00,
2013-06-26 04:01:00,78.0,72.0,29.74,West,264,1.0,5.0,81,0.00,,,0.00,,2013-06-26 08:01:00,
2013-06-26 04:22:00,78.0,72.0,29.75,WNW,295,1.0,5.0,81,0.00,,,0.00,,2013-06-26 08:22:00,
2013-06-26 05:43:00,77.0,71.0,29.76,NW,312,0.0,6.0,82,0.00,,,0.00,,2013-06-26 09:43:00,
2013-06-26 05:53:00,77.0,71.0,29.76,NW,312,0.0,6.0,82,0.00,,,0.00,,2013-06-26 09:53:00,
2013-06-26 06:12:00,77.0,71.0,29.77,North,357,0.0,6.0,81,0.00,,,0.00,,2013-06-26 10:12:00,
2013-06-26 06:53:00,78.0,71.0,29.80,NW,319,0.0,6.0,80,0.00,,,0.00,,2013-06-26 10:53:00,
2013-06-26 07:02:00,78.0,71.0,29.80,NW,319,0.0,6.0,80,0.00,,,0.00,,2013-06-26 11:02:00,
2013-06-26 07:12:00,78.0,71.0,29.80,NW,319,0.0,6.0,80,0.00,,,0.00,,2013-06-26 11:12:00,
2013-06-26 07:22:00,79.0,72.0,29.80,NW,320,0.0,6.0,79,0.00,,,0.00,,2013-06-26 11:22:00,
2013-06-26 07:52:00,79.0,70.0,29.80,WSW,253,1.0,6.0,74,0.00,,,0.00,,2013-06-26 11:52:00,
2013-06-26 08:02:00,79.0,70.0,29.80,WNW,287,1.0,7.0,75,0.00,,,0.00,,2013-06-26 12:02:00,
2013-06-26 08:12:00,80.0,71.0,29.80,WNW,296,0.0,7.0,75,0.00,,,0.00,,2013-06-26 12:12:00,
2013-06-26 08:22:00,80.0,70.0,29.81,NW,305,2.0,7.0,71,0.00,,,0.00,,2013-06-26 12:22:00,
2013-06-26 08:33:00,79.0,69.0,29.81,WNW,287,5.0,10.0,72,0.00,,,0.00,,2013-06-26 12:33:00,
2013-06-26 08:43:00,80.0,69.0,29.82,NW,306,2.0,10.0,70,0.00,,,0.00,,2013-06-26 12:43:00,
2013-06-26 08:52:00,80.0,69.0,29.81,NW,312,1.0,10.0,69,0.00,,,0.00,,2013-06-26 12:52:00,
2013-06-26 09:02:00,80.0,69.0,29.81,SW,220,1.0,12.0,69,0.00,,,0.00,,2013-06-26 13:02:00,
2013-06-26 09:11:00,81.0,69.0,29.81,WNW,283,2.0,12.0,68,0.00,,,0.00,,2013-06-26 13:11:00,
2013-06-26 09:23:00,81.0,69.0,29.81,NW,319,1.0,12.0,68,0.00,,,0.00,,2013-06-26 13:23:00,
2013-06-26 09:43:00,81.0,69.0,29.81,WNW,297,3.0,12.0,67,0.00,,,0.00,,2013-06-26 13:43:00,
2013-06-26 09:53:00,81.0,69.0,29.81,West,261,1.0,12.0,67,0.00,,,0.00,,2013-06-26 13:53:00,
2013-06-26 10:02:00,82.0,69.0,29.81,West,272,1.0,12.0,65,0.00,,,0.00,,2013-06-26 14:02:00,
2013-06-26 10:12:00,82.0,69.0,29.81,WNW,295,3.0,12.0,64,0.00,,,0.00,,2013-06-26 14:12:00,
2013-06-26 10:24:00,82.0,69.0,29.82,NW,325,5.0,12.0,64,0.00,,,0.00,,2013-06-26 14:24:00,
2013-06-26 10:53:00,83.0,70.0,29.81,SW,224,2.0,12.0,64,0.00,,,0.00,,2013-06-26 14:53:00,
2013-06-26 11:02:00,84.0,70.0,29.81,North,354,1.0,12.0,63,0.00,,,0.00,,2013-06-26 15:02:00,
2013-06-26 11:22:00,84.0,69.0,29.81,NW,305,1.0,12.0,61,0.00,,,0.00,,2013-06-26 15:22:00,
2013-06-26 11:34:00,83.0,69.0,29.81,WNW,287,1.0,12.0,62,0.00,,,0.00,,2013-06-26 15:34:00,
2013-06-26 11:44:00,83.0,68.0,29.81,NNE,17,2.0,12.0,61,0.00,,,0.00,,2013-06-26 15:44:00,
2013-06-26 11:53:00,82.0,67.0,29.81,West,274,1.0,12.0,61,0.00,,,0.00,,2013-06-26 15:53:00,
2013-06-26 12:43:00,83.0,70.0,29.80,NW,316,2.0,12.0,65,0.00,,,0.00,,2013-06-26 16:43:00,
2013-06-26 12:52:00,83.0,70.0,29.81,WNW,302,1.0,12.0,64,0.00,,,0.00,,2013-06-26 16:52:00,
2013-06-26 13:02:00,83.0,70.0,29.81,NW,312,1.0,12.0,64,0.00,,,0.00,,2013-06-26 17:02:00,
2013-06-26 13:11:00,83.0,70.0,29.81,NW,319,1.0,12.0,65,0.00,,,0.00,,2013-06-26 17:11:00,
2013-06-26 13:43:00,82.0,69.0,29.82,WNW,294,2.0,12.0,65,0.00,,,0.00,,2013-06-26 17:43:00,
2013-06-26 13:52:00,82.0,69.0,29.83,WNW,292,2.0,12.0,65,0.00,,,0.00,,2013-06-26 17:52:00,
2013-06-26 14:01:00,81.0,68.0,29.82,NNW,343,2.0,12.0,65,0.00,,,0.00,,2013-06-26 18:01:00,
2013-06-26 14:12:00,81.0,68.0,29.83,WSW,251,1.0,12.0,65,0.00,,,0.00,,2013-06-26 18:12:00,
2013-06-26 14:22:00,81.0,69.0,29.82,West,278,1.0,12.0,67,0.00,,,0.00,,2013-06-26 18:22:00,
2013-06-26 14:34:00,82.0,69.0,29.82,WNW,292,1.0,12.0,66,0.00,,,0.00,,2013-06-26 18:34:00,
2013-06-26 14:43:00,82.0,69.0,29.81,NW,323,1.0,12.0,64,0.00,,,0.00,,2013-06-26 18:43:00,
2013-06-26 15:02:00,83.0,70.0,29.81,WNW,292,1.0,12.0,65,0.00,,,0.00,,2013-06-26 19:02:00,
2013-06-26 15:11:00,83.0,70.0,29.81,WNW,292,1.0,12.0,65,0.00,,,0.00,,2013-06-26 19:11:00,
2013-06-26 15:43:00,83.0,68.0,29.79,North,352,1.0,12.0,61,0.00,,,0.00,,2013-06-26 19:43:00,
2013-06-26 15:52:00,84.0,70.0,29.79,WSW,253,1.0,12.0,62,0.00,,,0.00,,2013-06-26 19:52:00,
2013-06-26 16:02:00,83.0,69.0,29.79,WSW,251,0.0,12.0,62,0.00,,,0.00,,2013-06-26 20:02:00,
2013-06-26 16:12:00,84.0,70.0,29.78,South,189,1.0,12.0,63,0.00,,,0.00,,2013-06-26 20:12:00,
2013-06-26 16:43:00,85.0,69.0,29.78,WSW,254,1.0,12.0,59,0.00,,,0.00,,2013-06-26 20:43:00,
2013-06-26 17:02:00,84.0,69.0,29.78,WNW,289,1.0,12.0,61,0.00,,,0.00,,2013-06-26 21:02:00,
2013-06-26 17:12:00,84.0,69.0,29.78,WNW,289,1.0,12.0,61,0.00,,,0.00,,2013-06-26 21:12:00,
2013-06-26 17:23:00,84.0,69.0,29.78,WNW,289,1.0,12.0,61,0.00,,,0.00,,2013-06-26 21:23:00,
2013-06-26 17:33:00,84.0,69.0,29.78,West,281,0.0,12.0,61,0.00,,,0.00,,2013-06-26 21:33:00,
2013-06-26 17:43:00,84.0,69.0,29.78,NW,308,0.0,12.0,61,0.00,,,0.00,,2013-06-26 21:43:00,
2013-06-26 17:52:00,84.0,69.0,29.78,NW,313,0.0,12.0,60,0.00,,,0.00,,2013-06-26 21:52:00,
2013-06-26 18:01:00,84.0,69.0,29.78,NNW,332,1.0,12.0,61,0.00,,,0.00,,2013-06-26 22:01:00,
2013-06-26 18:11:00,84.0,69.0,29.78,NW,323,0.0,12.0,61,0.00,,,0.00,,2013-06-26 22:11:00,
2013-06-26 18:22:00,84.0,69.0,29.78,NW,312,1.0,12.0,61,0.00,,,0.00,,2013-06-26 22:22:00,
2013-06-26 18:43:00,84.0,70.0,29.78,NW,322,1.0,12.0,62,0.00,,,0.00,,2013-06-26 22:43:00,
2013-06-26 18:52:00,84.0,69.0,29.78,NW,322,1.0,12.0,61,0.00,,,0.00,,2013-06-26 22:52:00,
2013-06-26 19:22:00,84.0,70.0,29.78,NW,315,0.0,12.0,62,0.00,,,0.00,,2013-06-26 23:22:00,
2013-06-26 19:34:00,84.0,70.0,29.78,NW,326,1.0,12.0,62,0.00,,,0.00,,2013-06-26 23:34:00,
2013-06-26 19:43:00,84.0,70.0,29.78,NW,326,1.0,12.0,62,0.00,,,0.00,,2013-06-26 23:43:00,
2013-06-26 19:53:00,84.0,70.0,29.79,NW,316,0.0,12.0,64,0.00,,,0.00,,2013-06-26 23:53:00,
2013-06-26 20:01:00,84.0,71.0,29.79,NW,318,0.0,12.0,65,0.00,,,0.00,,2013-06-27 00:01:00,
2013-06-26 20:12:00,84.0,71.0,29.79,NW,318,0.0,12.0,65,0.00,,,0.00,,2013-06-27 00:12:00,
2013-06-26 20:22:00,82.0,69.0,29.78,ENE,66,1.0,12.0,64,0.00,,,0.00,,2013-06-27 00:22:00,
2013-06-26 20:33:00,81.0,68.0,29.79,East,80,0.0,12.0,65,0.00,,,0.00,,2013-06-27 00:33:00,
2013-06-26 20:43:00,81.0,68.0,29.79,East,80,0.0,12.0,65,0.00,,,0.00,,2013-06-27 00:43:00,
2013-06-26 20:53:00,80.0,68.0,29.79,ESE,117,0.0,12.0,68,0.00,,,0.00,,2013-06-27 00:53:00,
2013-06-26 21:01:00,80.0,68.0,29.79,ESE,117,0.0,12.0,68,0.00,,,0.00,,2013-06-27 01:01:00,
2013-06-26 21:11:00,79.0,68.0,29.79,North,7,0.0,12.0,68,0.00,,,0.00,,2013-06-27 01:11:00,
2013-06-26 21:22:00,79.0,68.0,29.79,North,7,0.0,12.0,68,0.00,,,0.00,,2013-06-27 01:22:00,
2013-06-26 21:32:00,79.0,68.0,29.79,NNE,25,0.0,12.0,70,0.00,,,0.00,,2013-06-27 01:32:00,
2013-06-26 21:43:00,79.0,69.0,29.78,NE,40,0.0,12.0,72,0.00,,,0.00,,2013-06-27 01:43:00,
2013-06-26 21:53:00,79.0,69.0,29.79,NE,40,0.0,12.0,72,0.00,,,0.00,,2013-06-27 01:53:00,
2013-06-26 22:01:00,79.0,69.0,29.79,NE,40,0.0,12.0,72,0.00,,,0.00,,2013-06-27 02:01:00,
2013-06-26 22:11:00,79.0,70.0,29.79,NE,40,0.0,12.0,73,0.00,,,0.00,,2013-06-27 02:11:00,
2013-06-26 22:22:00,79.0,70.0,29.79,NE,40,0.0,12.0,73,0.00,,,0.00,,2013-06-27 02:22:00,
2013-06-26 22:32:00,79.0,70.0,29.79,NE,40,0.0,12.0,74,0.00,,,0.00,,2013-06-27 02:32:00,
2013-06-26 22:42:00,79.0,70.0,29.79,NE,40,1.0,12.0,75,0.00,,,0.00,,2013-06-27 02:42:00,
2013-06-26 22:52:00,77.0,71.0,29.80,East,100,0.0,12.0,82,0.00,,,0.00,,2013-06-27 02:52:00,
2013-06-26 23:02:00,77.0,71.0,29.80,East,101,0.0,12.0,82,0.00,,,0.00,,2013-06-27 03:02:00,
2013-06-26 23:11:00,76.0,70.0,29.80,East,100,0.0,12.0,82,0.00,,,0.00,,2013-06-27 03:11:00,
2013-06-26 23:21:00,76.0,70.0,29.80,ENE,65,0.0,12.0,83,0.00,,,0.00,,2013-06-27 03:21:00,
2013-06-26 23:33:00,76.0,72.0,29.80,NE,52,0.0,12.0,86,0.00,,,0.00,,2013-06-27 03:33:00,
2013-06-26 23:42:00,76.0,72.0,29.80,NE,52,0.0,12.0,86,0.00,,,0.00,,2013-06-27 03:42:00,